GFSWCAN_850_dewp_021.txt.gz
Dewpoint
-9 -7 -6 -6 -5 -6 -6 -6 -7 -8 -9 -7 -5 -2 0 1 2 2 2 1 1 1 1 1 1 -0 -0 -0 0 -3 -1 0 2 2 1 -0 2 0 1 -4 -4 1 3 4 0 0 0 -4 0 4 11 11 12 12
-9 -8 -8 -7 -7 -7 -7 -7 -8 -10 -9 -7 -4 0 2 2 3 2 2 2 2 1 -0 0 1 1 1 -0 -0 1 -1 -0 0 2 2 2 2 1 2 2 -1 1 -1 4 -1 -3 -3 -1 4 8 11 11 12 12
-8 -8 -8 -8 -8 -8 -9 -9 -11 -11 -8 -6 -2 2 1 3 3 3 3 2 2 1 1 0 -1 -3 -1 -1 0 -0 -0 -1 -1 -0 1 3 3 2 4 2 2 0 1 3 1 -2 -1 -1 2 5 10 11 11 12
-12 -11 -11 -11 -12 -11 -8 -8 -9 -9 -7 -5 -0 1 1 3 3 3 3 3 2 2 1 0 -2 -2 -1 -0 -0 0 -1 -0 -0 0 2 3 4 2 3 1 3 1 1 2 3 2 2 -1 0 5 9 10 12 12
-5 -5 -6 -6 -6 -5 -3 -4 -6 -7 -6 -4 -0 1 3 3 3 3 3 3 2 2 1 1 0 -1 -1 -1 0 0 1 0 1 2 3 3 2 3 2 3 3 1 2 4 2 1 4 4 6 8 8 10 12 12
-2 -1 -0 -0 -0 -0 -0 -2 -4 -4 -5 -3 -0 2 3 2 3 2 2 0 1 2 2 2 1 -1 -0 -1 -0 0 1 1 1 1 1 0 -0 2 5 5 0 1 1 2 4 3 4 5 6 7 9 12 11 12
0 0 0 1 1 1 1 -1 -3 -5 -4 -0 1 3 2 2 2 2 2 3 2 1 1 2 1 1 1 3 3 1 1 1 1 1 2 1 0 2 4 4 1 0 1 2 3 3 3 5 6 8 11 11 12 12
1 1 1 1 1 1 -0 -3 -5 -3 0 2 2 2 1 2 3 3 3 3 2 1 1 2 3 2 3 3 4 2 2 1 1 2 2 3 3 3 4 3 2 2 3 4 4 4 4 6 7 8 10 11 11 10
1 1 1 1 1 0 -4 -6 -2 0 2 2 3 2 3 4 4 3 3 3 2 2 -0 0 3 4 2 3 3 4 2 3 2 3 4 4 5 5 4 4 3 3 4 4 5 7 7 7 9 6 10 10 10 10
1 1 0 -0 -0 -4 -6 -2 1 1 2 3 3 2 3 4 4 4 3 2 2 1 0 0 -0 2 2 3 4 4 4 4 4 3 2 4 4 3 3 4 4 5 5 6 5 6 8 8 8 9 10 10 9 10
1 0 0 -3 -7 -7 -2 0 1 1 2 3 3 3 4 4 4 4 3 3 2 1 0 0 0 2 2 3 4 4 3 2 5 4 3 4 4 4 6 8 9 8 8 8 8 8 7 8 8 9 10 8 9 10
0 -0 -2 -6 -6 -2 -1 0 1 1 2 3 3 3 3 4 4 5 5 4 4 4 4 3 4 3 3 3 5 4 3 3 6 5 4 5 3 5 6 6 6 7 7 9 7 6 5 9 9 10 10 10 10 9
-0 -1 -5 -4 -1 -1 -0 1 1 2 2 3 3 3 4 4 4 5 5 5 6 6 6 6 6 6 6 6 6 6 7 7 5 5 4 3 4 4 5 6 6 7 6 6 7 8 9 9 9 8 8 8 7 5
-1 -4 -2 -0 -1 -1 -0 0 2 2 3 3 3 5 5 5 4 4 4 4 4 4 4 5 7 5 4 5 6 6 6 5 6 6 5 4 3 4 4 5 6 6 6 6 7 7 7 6 6 5 7 6 6 6
-3 -3 -1 -0 -0 -1 -1 -1 1 1 2 3 3 5 4 3 3 1 1 3 1 1 4 5 5 5 5 6 5 5 6 6 5 5 4 3 1 2 3 4 4 5 5 5 6 5 6 7 6 5 4 4 4 4
-5 -3 -2 -0 0 -0 -1 -1 0 2 2 2 2 3 3 1 1 1 1 1 -0 3 5 4 4 5 6 6 6 6 6 6 6 5 3 1 -2 -3 -2 -1 0 2 3 4 3 3 3 4 4 4 4 5 5 5
-4 -4 -3 -1 -0 -0 -1 -1 1 2 2 2 2 2 3 3 2 1 1 0 -1 1 4 4 5 6 5 6 5 6 5 4 3 0 -1 -3 -3 -3 -3 -4 -4 -1 0 1 1 1 -0 -0 -0 1 1 2 2 3
0 -1 -3 -5 -2 -3 -0 1 1 2 3 2 2 1 2 1 2 1 1 -3 -0 0 2 3 2 4 4 5 5 4 4 2 2 -1 -3 -5 -5 -4 -3 -3 -4 -5 -5 -4 -2 -1 -2 -2 -1 -2 -2 -1 -1 -0
-1 1 1 -1 -2 -1 0 1 1 3 3 1 0 1 1 1 0 0 -2 -4 -4 -2 1 1 2 3 3 2 2 3 4 4 2 -3 -4 -5 -5 -5 -3 -3 -3 -3 -3 -3 -4 -3 -3 -3 -3 -3 -3 -2 -3 -3
-2 -1 0 1 1 -0 0 1 2 2 3 2 1 2 2 2 1 0 -0 -1 -1 -2 -1 -0 0 0 1 1 -1 -2 -2 -2 -0 -2 -3 -3 -4 -2 -1 -2 -3 -5 -5 -5 -5 -4 -3 -3 -2 -2 -3 -3 -3 -4
-1 -2 -1 1 2 2 2 2 3 3 2 3 4 3 2 2 3 1 0 1 -0 1 -0 2 0 -1 -1 -2 -3 -4 -5 -4 -3 -4 -4 -3 -3 -5 -7 -7 -8 -9 -10 -10 -8 -8 -6 -3 -3 -4 -4 -4 -6 -7
-0 -1 -0 2 3 3 3 4 4 4 4 4 5 3 4 4 3 3 1 1 2 2 -1 -3 -6 -6 -5 -5 -5 -5 -5 -5 -5 -5 -6 -6 -6 -6 -7 -8 -8 -9 -10 -11 -10 -7 -6 -3 -5 -5 -6 -7 -8 -8
0 0 2 3 4 3 4 5 5 5 5 5 4 5 5 4 4 2 2 2 2 -1 -1 -2 -4 -5 -6 -6 -5 -5 -6 -5 -5 -6 -7 -7 -8 -8 -7 -8 -9 -8 -9 -8 -8 -7 -5 -4 -6 -6 -7 -7 -8 -8
1 3 4 4 3 4 3 4 5 6 6 5 4 5 5 6 4 3 2 2 1 0 1 0 -3 -4 -6 -6 -7 -7 -7 -6 -6 -6 -7 -8 -7 -8 -9 -8 -9 -9 -10 -8 -7 -6 -5 -7 -8 -8 -8 -9 -9 -9
4 3 4 3 3 4 4 4 4 4 5 5 5 5 5 4 4 3 1 0 1 1 -3 -6 -6 -6 -6 -7 -7 -7 -7 -8 -8 -7 -9 -8 -8 -8 -8 -8 -8 -9 -10 -9 -9 -9 -9 -9 -9 -9 -9 -9 -9 -9
2 2 2 3 4 5 5 5 5 4 4 5 5 6 4 3 -1 -1 0 0 -1 -4 -5 -6 -7 -7 -7 -8 -7 -7 -8 -8 -8 -8 -8 -9 -9 -8 -8 -8 -9 -8 -9 -10 -9 -9 -9 -9 -9 -8 -8 -8 -9 -9
2 3 3 3 3 4 5 4 4 1 1 3 4 5 2 1 -3 -2 -5 -5 -4 -4 -4 -6 -7 -8 -8 -8 -8 -8 -7 -8 -8 -9 -9 -9 -9 -9 -9 -9 -8 -9 -9 -9 -10 -8 -8 -9 -9 -9 -9 -9 -8 -8
2 2 4 4 5 5 5 3 2 0 -1 2 3 3 2 -0 -4 -5 -6 -4 -3 -3 -5 -6 -6 -7 -7 -7 -7 -7 -7 -8 -8 -10 -10 -8 -8 -8 -8 -8 -9 -9 -9 -9 -9 -9 -8 -8 -8 -8 -8 -8 -7 -7
3 3 3 4 5 5 6 3 1 -1 -3 1 3 1 0 -2 -4 -5 -4 -3 -2 -2 -5 -6 -6 -6 -7 -7 -7 -7 -7 -8 -8 -9 -9 -9 -9 -8 -9 -9 -9 -9 -9 -9 -9 -9 -9 -8 -8 -8 -7 -7 -6 -5
4 4 4 4 4 3 2 1 1 -2 -3 -3 -1 -2 -2 -2 -2 -2 -2 -1 -0 -0 -5 -6 -6 -6 -7 -7 -7 -7 -7 -8 -8 -8 -8 -8 -8 -7 -8 -8 -8 -8 -9 -9 -8 -8 -8 -7 -7 -6 -6 -6 -6 -6
4 4 5 5 5 3 2 2 1 -1 -2 -1 -1 -1 -1 0 1 0 0 2 1 -1 -5 -5 -6 -6 -7 -7 -7 -7 -7 -7 -8 -8 -8 -8 -8 -8 -7 -7 -8 -7 -7 -7 -7 -7 -6 -6 -6 -6 -5 -5 -5 -6
3 6 6 4 3 2 2 2 2 1 0 0 1 0 1 2 2 2 2 3 -0 -5 -5 -5 -6 -6 -7 -8 -8 -8 -7 -7 -8 -8 -8 -7 -8 -7 -7 -8 -7 -6 -6 -6 -6 -6 -6 -5 -5 -5 -5 -5 -6 -6
-1 -1 0 3 4 3 2 2 3 3 4 3 3 3 4 3 3 3 2 0 -4 -6 -6 -5 -5 -6 -7 -7 -8 -8 -8 -7 -8 -8 -8 -7 -7 -7 -7 -7 -7 -7 -6 -6 -6 -6 -5 -5 -5 -5 -5 -5 -6 -6

GFSWCAN_850_dewp_024.txt.gz
Dewpoint
-8 -8 -8 -8 -8 -8 -8 -8 -10 -10 -10 -7 -4 -2 -2 2 3 3 3 2 2 1 1 1 -0 -0 -1 -1 1 -3 -2 -1 -1 1 -2 -5 -3 -3 -3 -7 -6 -4 -3 -3 -3 -2 -1 -8 -5 2 7 8 8 8
-12 -12 -12 -11 -10 -9 -8 -8 -9 -7 -6 -3 -3 -2 0 2 3 3 3 2 2 1 1 1 1 1 1 1 0 1 -3 -2 -2 1 2 2 -0 -1 -1 -2 -6 -3 -5 -4 -4 -4 -6 -6 -4 -1 0 2 7 6
-10 -6 -3 -3 -3 -3 -2 -2 -3 -2 -3 -1 -2 -2 2 2 4 3 3 3 3 1 1 2 0 -1 0 0 0 1 -0 -2 -2 -2 -1 1 2 -2 2 -1 -1 -3 -4 -2 -3 -5 -3 -3 -3 -2 -0 2 3 5
-1 -1 -1 -0 -0 0 0 0 0 -0 -1 -1 -3 -1 1 3 4 4 4 3 3 2 2 0 -0 -0 0 -0 -0 1 -1 -1 -1 1 2 3 4 -1 1 -1 -1 -3 -2 -0 1 -1 -4 -5 -3 -1 -0 3 5 5
-0 -0 0 0 1 1 1 1 1 0 -0 -3 -1 1 2 4 3 3 3 3 3 3 2 2 2 0 -0 -0 0 1 0 -1 1 2 3 3 2 2 0 0 1 -2 -0 1 0 -3 -2 -2 -2 3 4 5 6 6
-0 0 1 1 1 1 1 1 0 -3 -3 -0 2 3 3 1 2 3 3 1 3 2 2 3 1 1 1 1 1 1 1 1 0 1 0 -0 -0 2 5 4 -1 -2 -1 -1 -0 -1 -0 0 1 2 3 3 3 6
0 1 1 1 1 1 1 -3 -5 -2 1 2 3 2 1 2 3 3 3 3 3 2 1 2 2 1 2 2 2 2 2 2 2 1 1 1 -0 2 4 4 -1 -1 -1 -0 1 1 3 2 2 2 4 4 5 8
1 1 1 1 0 -1 -5 -5 -1 1 2 2 3 2 2 3 3 3 3 3 2 2 1 2 3 3 3 4 4 2 2 1 1 1 1 2 3 3 4 1 1 2 3 2 2 3 3 3 3 4 6 8 10 11
1 1 0 0 -4 -7 -4 -0 0 1 2 2 2 2 3 4 4 3 3 2 2 2 0 0 3 4 2 3 3 2 1 2 1 2 3 3 3 4 3 3 3 3 4 3 4 3 4 5 4 5 6 9 7 11
1 1 -0 -4 -6 -2 -1 0 1 2 2 3 3 4 5 4 4 3 3 2 2 1 1 0 0 2 2 3 3 3 4 3 4 3 1 2 3 2 3 6 8 5 3 4 5 5 6 6 6 6 8 6 8 9
1 -0 -5 -4 -1 -1 0 1 2 2 2 4 5 4 4 4 5 4 5 3 3 3 1 1 1 2 2 3 4 3 4 3 5 5 4 3 4 3 4 5 6 7 6 5 5 6 7 7 7 7 6 10 11 10
0 -4 -4 -0 -1 -1 0 1 1 2 2 2 3 3 5 5 4 4 5 4 5 6 6 5 6 4 4 3 5 5 5 5 7 5 5 5 3 3 4 5 5 6 8 8 7 8 8 8 8 9 9 9 8 8
-2 -5 -0 -0 -1 -1 -0 -0 1 2 2 2 3 3 4 4 5 5 5 5 5 4 5 4 6 6 6 6 6 6 6 7 4 6 4 3 3 3 4 4 5 5 6 6 6 5 7 7 7 7 7 7 7 8
-6 -2 -1 -0 -0 -1 -2 -2 -0 -0 4 3 3 5 3 4 4 4 5 4 3 3 2 4 5 5 5 5 5 6 5 2 4 6 5 4 3 2 2 3 5 5 5 6 6 6 6 7 7 7 7 7 6 6
-7 -3 -1 0 -0 -1 -2 -4 -2 2 3 2 2 6 3 2 1 1 1 1 1 2 4 3 3 1 3 4 4 5 6 6 5 5 4 3 2 1 1 2 3 3 4 5 6 6 6 6 6 6 6 6 6 5
-5 -5 -2 -1 -1 -1 -2 -4 -2 2 3 1 1 1 1 -0 -1 -1 0 0 1 2 4 3 3 5 5 5 6 6 6 5 5 3 2 1 2 1 1 1 2 2 2 3 3 3 4 5 5 5 6 6 4 3
-1 -2 -5 -2 -2 -3 -2 1 2 2 1 1 0 0 0 1 0 -0 -1 -0 0 1 2 2 5 6 4 5 6 4 5 4 3 1 -1 0 1 1 0 0 1 1 1 2 2 2 1 1 2 2 2 2 2 1
-1 -0 0 -2 -3 -2 -1 2 2 1 1 1 1 2 1 0 -1 -1 -1 -1 0 1 1 1 -0 2 4 5 4 3 3 5 2 -1 -1 -1 0 0 0 -0 -0 -1 -0 0 0 0 0 -0 -1 -0 -0 -1 -1 -1
-2 -1 0 0 -1 -1 3 3 3 2 1 1 2 2 1 -0 -2 -2 -1 -1 -2 -2 -1 -2 -1 1 -0 -2 -2 -3 -2 -0 0 -2 -2 -2 -0 -0 -2 -3 -4 -4 -4 -3 -2 -1 -1 -1 -1 -2 -2 -2 -3 -3
-2 -2 -1 -0 1 3 3 4 3 2 2 3 3 2 2 2 -2 -2 -2 -2 -3 -2 -2 -2 -2 -3 -3 -2 -2 -3 -4 -4 -4 -3 -3 -3 -4 -4 -4 -4 -6 -7 -8 -8 -7 -6 -3 -3 -3 -3 -3 -3 -4 -4
-1 -1 -2 1 1 2 4 4 4 4 3 3 4 4 3 2 -0 -2 -2 -2 -2 -3 -2 -2 -3 -3 -1 -0 -2 -3 -4 -4 -4 -4 -5 -6 -6 -6 -6 -7 -8 -8 -8 -8 -8 -7 -4 -4 -4 -4 -5 -5 -6 -6
0 -0 0 2 5 3 6 5 5 5 5 4 5 4 3 1 1 -1 -1 -2 -1 -1 -1 -1 -1 -1 -2 -1 -1 -1 -3 -2 -3 -5 -6 -7 -7 -7 -7 -8 -9 -9 -9 -8 -7 -5 -5 -5 -5 -5 -6 -6 -7 -7
-1 1 3 4 6 5 6 6 6 6 5 5 4 3 3 2 3 2 -3 -2 -1 0 -0 -1 -0 1 -1 -1 -1 -2 -3 -5 -6 -6 -7 -7 -7 -7 -7 -8 -9 -9 -9 -8 -7 -6 -6 -6 -6 -7 -7 -8 -8 -8
1 4 6 5 5 4 5 5 6 6 6 4 4 4 3 4 4 -0 -3 -3 -2 -1 -2 -1 -4 -6 -4 -2 -6 -6 -6 -7 -8 -8 -7 -8 -8 -8 -7 -8 -8 -9 -9 -9 -8 -8 -8 -8 -9 -9 -9 -9 -9 -9
4 2 4 3 5 4 2 2 3 2 1 4 4 3 4 5 3 -1 -3 -5 -3 -3 -3 -3 -4 -6 -7 -8 -7 -7 -5 -7 -8 -7 -7 -8 -8 -9 -9 -8 -8 -8 -9 -9 -9 -9 -9 -9 -9 -8 -8 -8 -9 -9
6 4 3 3 4 4 3 1 1 0 -1 3 3 4 4 3 -2 -3 -4 -4 -3 -3 -3 -3 -3 -5 -7 -7 -8 -8 -7 -7 -7 -8 -8 -9 -8 -9 -8 -8 -9 -9 -8 -8 -9 -9 -9 -9 -9 -8 -9 -8 -9 -9
5 3 4 3 5 5 4 3 3 0 -2 -0 1 3 2 -0 -3 -5 -3 -2 -2 -2 -1 -4 -4 -4 -5 -7 -7 -7 -7 -7 -7 -8 -8 -8 -8 -8 -8 -8 -8 -8 -8 -8 -8 -8 -9 -9 -9 -9 -9 -9 -8 -8
4 4 3 5 5 4 3 3 2 -0 -2 -2 -0 1 -0 -2 -2 -3 -3 -1 -1 -2 -4 -5 -5 -5 -6 -6 -7 -7 -8 -8 -8 -8 -9 -9 -8 -8 -8 -8 -8 -9 -8 -8 -8 -8 -8 -8 -8 -8 -8 -8 -8 -7
6 5 4 4 4 4 4 3 1 -1 -1 -1 -0 -0 -1 -1 -0 -1 0 0 -1 1 -2 -3 -5 -5 -6 -6 -7 -7 -8 -8 -8 -8 -8 -9 -8 -8 -8 -8 -8 -8 -8 -8 -8 -9 -8 -8 -8 -7 -7 -7 -6 -6
4 5 4 4 3 2 1 2 2 3 1 0 2 1 1 1 2 -0 -1 1 3 3 0 -2 -5 -5 -5 -6 -7 -7 -7 -8 -8 -8 -8 -8 -8 -8 -7 -7 -8 -8 -8 -8 -8 -7 -7 -6 -6 -6 -6 -6 -6 -6
5 5 5 4 2 2 3 4 4 4 3 2 2 1 1 4 3 1 1 0 3 1 -3 -5 -5 -5 -6 -6 -7 -9 -9 -7 -7 -7 -8 -8 -8 -7 -7 -7 -7 -7 -7 -7 -7 -6 -6 -6 -6 -6 -6 -6 -6 -6
5 5 4 2 -1 3 3 3 3 2 3 3 2 3 3 4 4 4 2 2 0 -2 -5 -5 -5 -5 -6 -7 -8 -7 -9 -8 -7 -7 -6 -7 -7 -7 -7 -7 -7 -7 -6 -6 -5 -6 -5 -5 -5 -5 -5 -5 -5 -6
2 1 2 1 1 2 2 3 3 3 3 3 4 4 4 3 4 3 1 -1 -4 -4 -4 -5 -5 -5 -5 -7 -7 -7 -7 -7 -7 -7 -8 -8 -7 -7 -7 -7 -7 -7 -6 -5 -5 -5 -5 -5 -4 -4 -5 -4 -5 -5

GFSWCAN_850_dewp_030.txt.gz
Dewpoint
-9 -11 -9 -1 -0 -0 -0 0 1 1 1 1 1 1 1 1 3 3 3 3 3 2 2 2 2 2 2 0 2 -1 -1 0 2 4 3 5 3 -1 -2 -2 -1 -3 -1 -0 -0 2 5 -1 1 6 8 4 5 6
-8 -7 -1 -0 -0 0 1 1 1 1 1 1 1 1 0 1 3 4 4 4 4 3 3 2 3 3 3 2 2 1 -1 -1 -3 1 3 1 0 -2 0 -0 -3 -1 -2 -2 -1 -1 3 -3 -3 -2 -1 1 1 3
-3 -0 -1 -0 0 1 1 1 1 1 -1 -3 -2 -1 1 4 4 4 4 4 4 3 2 2 3 3 3 2 1 1 0 -0 -2 -0 -2 -2 1 -2 2 -2 1 0 -3 -2 -1 -2 -1 -4 -4 -4 -2 -2 -2 -1
-0 -0 -0 1 1 1 1 0 -2 -4 -3 -0 2 3 4 4 4 4 4 4 4 3 2 2 2 3 2 1 1 0 0 1 0 -1 -1 1 2 -3 -1 -2 -2 -3 -3 -1 -1 -3 -4 -5 -4 -4 -3 -3 -3 -2
-0 0 1 1 1 1 -1 -5 -5 -1 1 2 3 2 1 2 2 4 5 4 4 3 3 3 3 3 3 3 1 1 -0 -0 -1 0 -0 1 -1 -0 -2 -2 -2 -5 -4 -3 -2 -3 -0 -0 -2 -4 -4 -3 -2 -2
0 0 1 1 1 -3 -7 -2 1 1 2 3 2 1 2 2 3 4 5 4 3 3 2 3 3 4 3 3 2 3 3 3 3 3 3 2 1 2 3 3 -2 -3 -2 0 2 2 2 0 -1 -2 -1 -1 -2 -2
-0 1 1 0 -5 -5 0 1 1 2 2 3 1 2 3 3 4 4 4 3 3 3 2 2 3 3 3 3 3 3 3 3 2 1 1 2 3 2 3 3 -0 -1 -0 0 0 1 2 2 1 0 0 1 2 2
1 1 0 -6 -1 0 1 1 1 2 2 2 1 2 4 4 5 5 3 3 3 2 2 3 3 3 3 3 4 2 2 1 1 1 0 1 2 1 3 2 2 2 2 2 2 2 2 2 2 2 1 2 3 2
1 1 -4 -2 0 1 0 0 -0 1 2 2 3 5 5 6 6 4 3 3 3 3 3 2 4 6 3 3 3 2 2 3 1 2 1 1 2 3 1 1 5 5 3 4 3 3 2 2 3 2 2 2 2 2
0 -2 -5 0 1 -0 -1 -0 -0 3 2 5 5 7 7 6 5 4 5 4 4 3 3 4 3 6 3 4 4 4 2 4 5 4 1 2 2 4 5 5 5 6 4 4 4 3 3 4 3 3 2 2 2 2
-0 -6 -1 0 1 -0 -0 -1 0 5 5 6 7 5 5 5 6 6 7 5 5 7 6 6 5 6 5 5 5 5 5 4 7 5 5 4 4 4 5 5 5 5 5 5 4 4 4 4 4 4 4 4 4 4
-1 -7 -1 0 0 -1 -0 1 3 6 2 0 3 6 7 6 4 3 5 3 4 6 3 4 4 6 6 5 5 6 7 6 4 -0 4 5 4 3 3 4 5 4 5 5 5 6 6 6 6 6 7 7 7 8
-1 -7 -2 -0 -1 -1 -1 1 2 3 3 7 4 4 3 3 6 5 7 7 5 3 2 2 7 7 7 6 7 6 0 -0 -1 4 5 5 4 4 3 3 4 4 3 3 5 5 5 5 5 5 6 5 6 6
-1 -7 -4 -2 -1 -2 -2 2 2 2 4 2 1 6 2 2 0 -0 1 2 0 0 1 3 4 3 1 2 1 5 1 0 3 6 6 4 4 3 3 1 2 3 4 3 4 4 4 4 4 5 5 5 5 5
-2 -4 -5 -4 -3 -3 -0 2 2 2 2 1 0 5 -0 -4 -5 -5 -4 -3 -2 -1 1 4 2 1 0 1 1 2 3 5 4 5 3 2 3 2 2 -0 0 1 2 3 3 3 3 3 3 4 4 4 4 4
-2 3 0 0 -2 -1 2 4 3 2 0 -1 -2 -1 -3 -4 -4 -4 -3 -3 -2 -2 -1 -0 1 2 1 1 3 5 6 6 3 3 -1 0 2 1 0 -0 -1 -1 -1 1 1 2 1 2 1 2 1 2 2 2
-0 5 -0 -1 -1 -0 3 3 2 1 0 -1 -1 -2 -3 -4 -3 -3 -3 -3 -2 -2 -1 -2 1 1 -0 1 3 3 4 4 2 2 -2 2 0 -0 -1 -2 -3 -3 -3 -3 -0 -1 -0 1 -0 -0 0 -0 -1 -1
1 -0 -2 -2 -1 3 4 2 1 0 -0 -1 -1 -1 -1 -3 -3 -3 -3 -3 -2 -2 -2 -1 -3 -0 2 2 0 -2 -4 -3 -1 -1 -1 1 1 -2 -2 -4 -5 -5 -5 -5 -5 -1 -2 -3 -2 -2 -2 -2 -2 -3
-4 -4 -3 -3 0 3 3 2 4 1 -0 -1 -1 -1 -1 -2 -3 -3 -3 -3 -3 -4 -4 -3 -3 -2 -2 -3 -3 -4 -4 -4 -5 -5 -2 0 1 -5 -4 -5 -7 -7 -7 -6 -5 -4 -3 -4 -4 -4 -4 -4 -4 -5
-5 -4 -2 -2 2 7 2 2 4 2 -0 0 1 -0 -1 -1 -2 -3 -3 -3 -3 -4 -3 -3 -3 -3 -3 -3 -3 -4 -3 -3 -4 -5 -5 -6 -7 -7 -6 -6 -7 -8 -8 -7 -6 -6 -6 -6 -6 -6 -6 -6 -7 -7
2 5 -2 2 8 5 2 0 2 1 1 2 1 -0 -0 -1 -2 -3 -3 -3 -3 -3 -3 -3 -4 -3 -0 -0 -1 -2 -3 -3 -3 -4 -5 -6 -7 -7 -7 -7 -8 -9 -8 -7 -6 -6 -6 -6 -6 -7 -7 -7 -7 -9
7 -0 4 7 6 4 4 1 1 2 3 2 0 -0 0 -1 -1 -1 -2 -3 -2 -1 -1 -1 -1 -1 -2 -0 -1 -1 -1 -2 -4 -6 -7 -7 -8 -8 -7 -8 -8 -8 -8 -8 -7 -7 -7 -7 -8 -8 -8 -8 -8 -9
2 4 7 6 4 4 3 3 3 1 1 1 0 -0 -1 -2 -0 0 -2 -4 -3 -2 -1 -1 -1 -1 -1 -1 -2 -1 -2 -4 -7 -8 -8 -7 -8 -9 -8 -8 -8 -8 -9 -8 -8 -8 -8 -8 -8 -8 -8 -8 -8 -9
5 8 6 4 2 3 2 2 0 0 0 0 0 1 1 2 0 1 -2 -4 -3 -2 -1 -1 -3 -4 -4 -1 -6 -6 -5 -7 -8 -8 -8 -7 -9 -9 -9 -8 -8 -8 -8 -9 -8 -9 -9 -8 -8 -9 -8 -9 -8 -9
7 2 5 2 3 1 -1 -2 -2 -2 -0 -2 -1 1 1 -0 2 1 -2 -3 -2 -1 -1 1 0 -1 -3 -5 -6 -7 -7 -8 -8 -8 -8 -8 -9 -9 -9 -9 -7 -7 -8 -9 -9 -9 -8 -9 -8 -9 -8 -8 -9 -8
5 3 3 -0 0 -0 -1 -1 -0 -1 -1 -3 -3 1 1 1 2 2 -1 -1 -0 1 1 1 1 1 0 -3 -5 -6 -7 -7 -7 -7 -8 -8 -8 -9 -8 -9 -9 -7 -8 -9 -9 -8 -8 -8 -8 -9 -8 -8 -8 -7
4 1 1 -0 -1 -1 0 -0 0 4 6 2 -2 -2 2 6 2 1 1 0 1 2 2 2 0 0 0 -3 -4 -7 -8 -8 -7 -7 -8 -8 -8 -8 -8 -9 -8 -8 -9 -8 -8 -8 -8 -8 -7 -8 -7 -6 -5 -6
3 1 1 1 3 0 2 6 6 3 4 2 -2 1 3 3 2 1 0 1 2 2 2 -0 0 -0 -3 -4 -5 -7 -8 -9 -9 -8 -9 -8 -8 -8 -8 -8 -8 -8 -8 -8 -9 -9 -8 -7 -7 -7 -7 -6 -5 -6
5 5 5 5 3 2 3 5 4 1 -0 -0 -2 -2 -3 3 2 2 2 1 1 2 2 1 -0 -3 -4 -5 -5 -6 -7 -9 -9 -9 -8 -8 -8 -8 -8 -8 -7 -7 -6 -6 -6 -7 -9 -7 -7 -7 -6 -6 -6 -5
5 3 5 -0 -0 1 0 1 2 -3 -2 -2 -2 -2 3 4 3 2 1 1 1 2 0 -1 -3 -4 -5 -7 -8 -9 -10 -9 -8 -8 -8 -8 -8 -8 -7 -7 -7 -7 -7 -6 -5 -4 -5 -6 -4 -4 -5 -6 -6 -5
1 1 -0 0 -0 -1 0 -1 -3 -3 -1 1 -1 -0 2 5 5 3 3 2 1 1 -0 -3 -4 -4 -5 -8 -9 -9 -10 -8 -6 -6 -8 -8 -7 -7 -7 -6 -6 -6 -6 -6 -5 -5 -6 -6 -5 -5 -4 -4 -4 -5
1 1 1 -0 -3 -3 -2 -1 -2 -3 -2 -2 -1 -2 2 4 5 4 3 -0 -3 -4 -4 -5 -6 -6 -6 -8 -8 -8 -8 -6 -6 -6 -6 -7 -8 -7 -7 -7 -5 -5 -5 -5 -4 -4 -4 -4 -4 -4 -4 -4 -4 -5
-0 -2 -2 -2 -1 -1 -3 -3 -2 -2 0 2 3 3 -0 2 3 2 -0 -2 -3 -5 -6 -6 -7 -7 -7 -7 -7 -7 -6 -5 -6 -7 -7 -7 -7 -10 -8 -7 -7 -6 -5 -4 -4 -4 -4 -4 -4 -4 -4 -4 -4 -5

GFSWCAN_850_dewp_033.txt.gz
Dewpoint
-3 -6 -4 -0 -0 -0 1 1 1 1 1 1 1 -0 1 2 3 3 3 4 3 2 2 3 3 3 3 3 3 2 2 1 2 4 5 5 6 2 2 1 3 1 3 2 2 5 10 1 1 8 7 2 2 3
-5 -2 -1 -1 0 0 1 1 1 -1 -2 -3 -2 0 2 4 4 4 4 4 4 3 3 3 3 4 4 2 3 3 3 2 0 2 3 1 1 2 0 6 1 5 4 5 3 6 1 3 2 -1 -1 -0 -2 -0
-1 -1 -1 0 0 1 1 0 -3 -5 -3 0 2 2 4 4 4 4 4 4 4 3 3 3 3 4 3 2 3 2 1 1 1 0 -1 1 3 -0 2 3 1 -2 -2 1 2 0 -0 -1 -0 -0 -2 -3 -2 -2
-1 -0 -0 0 1 1 -2 -6 -5 -0 1 2 3 3 1 2 3 3 4 4 4 3 2 2 3 4 3 2 2 2 1 0 0 -0 -0 2 3 1 2 1 1 -2 -2 -1 -1 1 0 -0 2 2 -0 -1 -3 -3
-0 -0 0 1 1 -5 -6 -1 1 1 2 3 3 2 2 2 3 5 5 4 3 3 3 3 3 4 3 3 3 3 2 1 2 2 2 2 0 1 1 1 1 -2 -0 1 2 0 3 2 2 1 2 1 0 2
-1 0 1 1 -5 -2 -0 0 1 2 2 2 1 2 3 4 5 5 5 4 4 3 3 3 2 3 3 3 3 3 3 2 2 3 3 2 3 2 3 3 -1 0 1 1 2 1 1 1 1 2 2 1 0 2
0 1 1 -5 -1 0 0 0 1 1 1 1 2 3 3 3 3 4 4 3 3 3 2 3 3 3 3 3 3 3 3 2 2 1 1 1 2 2 3 3 1 2 3 3 4 3 2 1 1 2 2 2 2 2
1 1 -3 -4 0 0 -1 0 0 1 2 1 2 4 4 5 5 5 3 3 3 2 3 4 4 4 3 4 4 3 2 2 1 1 1 1 1 1 2 2 3 4 5 5 4 3 3 3 2 2 2 2 3 3
1 -0 -6 -1 0 -0 -1 -0 -0 2 3 4 4 5 5 6 6 5 4 4 3 3 4 4 6 7 4 4 3 3 2 3 2 2 1 1 1 3 3 3 4 4 5 5 4 5 3 3 3 2 2 3 3 2
0 -2 -5 -1 0 0 -0 1 0 4 5 5 6 6 7 6 5 5 5 5 5 4 4 5 5 6 4 4 4 4 3 4 5 5 1 2 2 3 3 4 4 4 5 5 6 3 3 3 3 2 3 4 3 3
-0 -3 -5 -1 -0 -0 -0 2 2 5 5 6 7 6 5 5 6 7 7 6 5 7 6 6 6 7 6 5 5 4 5 5 6 5 5 4 3 4 3 5 3 3 3 4 5 5 5 6 5 4 4 4 4 4
-0 -1 -7 -2 -1 -1 -1 2 3 4 5 2 3 6 6 6 6 4 7 5 5 7 3 6 6 6 6 5 5 6 7 6 5 2 4 4 5 3 2 4 4 3 2 2 3 4 4 4 6 5 4 6 7 7
-1 -1 -7 -3 -2 -2 -2 1 2 3 3 5 5 4 4 3 5 6 5 7 6 2 1 3 6 6 7 6 6 7 3 2 0 5 4 5 3 3 1 1 2 3 2 2 2 2 2 3 4 4 5 5 5 5
-2 -2 -6 -3 -1 -3 0 1 2 3 4 7 3 4 4 5 3 1 0 1 -2 -1 0 3 4 4 3 5 3 5 2 2 4 4 5 4 2 1 1 -1 -1 -0 4 2 2 1 2 2 2 3 3 3 3 3
-3 -1 0 -0 -0 -1 1 2 2 2 3 2 0 5 2 -3 -3 -3 -3 -2 -2 -1 -0 2 2 1 2 3 3 2 3 5 5 6 4 1 -1 -2 -1 -1 -2 -3 -1 3 2 1 2 1 2 2 2 2 2 2
-3 -2 1 -1 -1 -1 2 3 3 3 1 -0 -2 -1 -3 -3 -2 -3 -2 -2 -2 -1 -2 -1 1 2 1 3 3 4 4 5 4 3 1 1 0 -0 -3 -4 -3 -3 -4 -1 2 2 1 1 1 1 1 1 1 1
-2 4 -1 -3 -3 0 3 3 3 2 1 1 -1 -1 -2 -2 -1 -2 -2 -2 -2 -1 1 0 1 2 2 1 2 2 4 4 1 -0 1 1 -1 -0 -4 -6 -6 -5 -6 -6 -2 0 1 1 0 -0 -0 -0 -1 -1
-1 -3 -3 -4 -2 3 5 3 2 1 -0 -1 0 -1 -1 -2 -2 -2 -2 -3 -3 -2 -2 -1 -3 -1 0 0 1 0 -2 -3 -5 -4 -0 -0 -1 -1 -5 -7 -7 -6 -6 -6 -2 -4 -4 -4 -1 -0 -2 -3 -3 -2
-2 -6 -4 -4 -0 3 5 2 4 4 0 -0 -0 0 -1 -1 -3 -2 -2 -3 -3 -4 -3 -3 -0 0 1 -1 -1 -2 -1 -2 -4 -3 -2 -4 -6 -6 -5 -7 -8 -7 -5 -6 -5 -3 -5 -5 -5 -5 -6 -7 -6 -7
-2 -1 -1 -3 2 5 7 2 2 4 1 1 1 1 -0 0 -1 -3 -2 -2 -3 -3 -2 -1 -1 -0 -0 -1 -1 -2 -1 -2 -2 -2 -3 -5 -7 -7 -5 -7 -8 -8 -7 -5 -6 -6 -6 -6 -6 -7 -7 -8 -8 -8
2 6 0 3 7 5 4 1 2 3 1 2 2 2 -0 -1 -1 -1 -2 -2 -2 -2 -1 -1 -1 -1 1 0 0 -0 -1 -4 -3 -4 -3 -6 -6 -8 -6 -7 -8 -8 -7 -7 -5 -6 -7 -7 -8 -7 -7 -8 -9 -8
5 0 2 7 7 5 4 2 1 2 4 3 2 1 2 1 -0 0 -1 -3 -1 -1 -0 0 -1 -1 -0 -1 -1 -0 -0 -2 -4 -6 -7 -7 -6 -8 -8 -7 -8 -8 -8 -8 -7 -7 -8 -8 -8 -8 -8 -8 -8 -8
2 2 8 8 4 4 1 3 3 2 3 1 2 1 0 0 -0 -0 1 -3 -1 -1 -0 -1 -2 -1 -2 -2 -2 -0 -1 -3 -7 -8 -7 -7 -8 -9 -9 -8 -7 -8 -8 -8 -8 -7 -8 -8 -8 -8 -8 -8 -8 -8
8 8 8 6 4 3 2 3 4 1 -0 1 3 2 2 3 2 2 3 -1 -1 -1 -1 -1 -1 -1 -2 -2 -2 -3 -6 -7 -7 -7 -7 -8 -8 -9 -9 -6 -7 -8 -8 -9 -8 -8 -8 -8 -8 -8 -8 -9 -5 -5
8 3 6 4 3 3 2 2 0 6 7 6 5 3 3 3 6 6 3 -0 0 0 1 2 1 1 -1 -1 -4 -6 -7 -7 -7 -7 -7 -8 -8 -8 -8 -6 -6 -7 -8 -8 -8 -8 -7 -7 -7 -8 -8 -8 -6 -4
4 2 3 2 0 1 -1 3 6 6 6 5 3 0 4 6 6 6 4 2 1 2 2 2 2 1 0 -1 -3 -6 -6 -7 -7 -7 -7 -8 -8 -8 -8 -8 -7 -7 -9 -8 -7 -8 -7 -7 -7 -6 -5 -5 -6 -6
4 3 3 2 1 1 6 4 5 5 5 6 3 1 3 4 6 4 4 3 3 3 2 1 0 0 0 -2 -4 -6 -8 -9 -7 -8 -7 -7 -8 -8 -8 -7 -7 -8 -8 -8 -8 -8 -7 -6 -7 -6 -5 -5 -6 -6
5 4 5 5 4 4 6 6 5 7 6 4 3 1 1 4 6 2 3 2 2 2 2 1 0 -1 -1 -3 -4 -4 -6 -8 -9 -9 -7 -6 -5 -7 -8 -7 -6 -6 -7 -7 -8 -8 -9 -7 -7 -6 -6 -5 -5 -6
5 1 4 4 4 4 6 5 5 5 4 2 1 0 3 3 4 2 1 1 2 2 2 1 -0 -2 -4 -6 -4 -7 -8 -8 -8 -8 -8 -7 -7 -7 -7 -7 -7 -6 -5 -4 -6 -7 -8 -7 -8 -6 -5 -5 -4 -4
4 4 5 4 4 5 3 2 1 1 0 -0 4 5 4 4 2 2 2 1 2 1 1 -1 -2 -2 -5 -8 -8 -8 -7 -6 -6 -7 -8 -6 -6 -7 -7 -7 -6 -6 -6 -6 -4 -3 -4 -3 -4 -4 -5 -5 -6 -5
2 5 5 4 3 1 -2 -1 0 -1 1 2 2 3 5 4 3 3 2 -0 -2 -1 -1 -5 -5 -5 -7 -7 -7 -8 -7 -5 -5 -7 -7 -7 -7 -7 -7 -7 -5 -4 -5 -5 -5 -4 -4 -4 -4 -4 -4 -4 -4 -5
-0 -0 1 2 -3 -3 -2 -1 -2 -2 1 3 4 5 6 7 5 3 -1 -3 -4 -5 -6 -6 -6 -6 -7 -7 -7 -7 -6 -6 -6 -6 -7 -7 -7 -9 -8 -6 -5 -5 -4 -4 -4 -3 -3 -4 -4 -3 -3 -4 -4 -5
-1 -0 -1 -1 0 0 -3 -3 -2 -2 2 4 6 5 3 3 2 1 -1 -3 -4 -6 -6 -7 -7 -6 -6 -6 -6 -6 -6 -5 -6 -6 -7 -9 -8 -9 -7 -7 -6 -6 -3 -3 -4 -4 -4 -4 -4 -4 -4 -4 -4 -4